Location: Unspecified
(0.0000°N, 0.0000°E)
Time: 15:55:32
(UTC+00:00)

HuskySat-1 - Pass Details

Date: 27 October 2021
Orbit: 443 x 456 km, 51.6° (Epoch: 29 November)

Event Time Altitude Azimuth Distance (km) Brightness Sun altitude
Rises 04:11:59 0° 181° (S) 2,444 ? -22.4°
Reaches altitude 10° 04:15:37 10° 142° (SE) 1,565 ? -21.5°
Maximum altitude 04:16:34 11° 127° (SE) 1,512 ? -21.3°
Drops below altitude 10° 04:17:31 10° 111° (ESE) 1,561 ? -21.0°
Sets 04:21:06 0° 72° (ENE) 2,424 ? -20.2°
